DW1283 Carlisle Public School MA US current weather conditions

sailwx.info

Wind from 290

Air temperature -6.1° C
Dewpoint -11.0° C

Last reported at 2019-Dec-08 02:01 UTC.
Time now 2019-Dec-08 03:07 UTC

Location: N 42°32' W 071°21'.
View on Google Maps.

See reports from other nearby stations

  
Tides and Currents Weather Stations Pressure Air Temp Water Temp Dewpoint Dewpoint Depression Visibility Wind Speed Wind Dir Waves Ship Positions
date/time (UTC)wind fromknots sea level pressurealtimeterstation pressurevisibilityair tempwater tempwave heightnotes
2019-Dec-08 02:01 290 -6.1
2019-Dec-08 01:46 290 -6.1
2019-Dec-08 01:31 290 -5.0
2019-Dec-08 01:16 290 -5.0
2019-Dec-08 01:01 290 -4.4
2019-Dec-08 00:46 290 -4.4
2019-Dec-08 00:31 290 -4.4
2019-Dec-08 00:15 290 -4.4
2019-Dec-08 00:00 290 -4.4
2019-Dec-07 23:45 290 -3.9
2019-Dec-07 23:31 290 0 -3.9
2019-Dec-07 23:16 311 0 -3.9
2019-Dec-07 23:00 290 -3.9
2019-Dec-07 22:46 290 0 -3.9
2019-Dec-07 22:30 289 0 -3.3
2019-Dec-07 22:15 288 0 -3.3
2019-Dec-07 22:01 286 1 -3.3
2019-Dec-07 21:45 256 2 -2.8
2019-Dec-07 21:30 308 1 -2.8
2019-Dec-07 21:15 303 2 -2.2
2019-Dec-07 21:00 306 1 -2.2
2019-Dec-07 20:45 295 1 -2.2
2019-Dec-07 20:30 286 1 -1.7
2019-Dec-07 20:15 268 3 -1.7
2019-Dec-07 20:00 290 1 -1.1
2019-Dec-07 19:45 283 2 -1.1
2019-Dec-07 19:30 305 3 -1.1
2019-Dec-07 19:15 284 2 -0.6
2019-Dec-07 19:00 270 3 -0.6
2019-Dec-07 18:45 284 5 -0.6
2019-Dec-07 18:32 261 3 -0.6
2019-Dec-07 18:18 312 1 -1.1
2019-Dec-07 18:01 298 2 -1.1
2019-Dec-07 17:46 261 3 -1.1
2019-Dec-07 17:31 310 0 -1.1
2019-Dec-07 17:17 259 0 -1.7
2019-Dec-07 17:01 323 1 -1.7
2019-Dec-07 16:46 297 1 -1.7
2019-Dec-07 16:31 274 1 -1.7
2019-Dec-07 16:17 332 0 -2.8
2019-Dec-07 16:01 302 3 -2.8
2019-Dec-07 15:46 284 3 -2.8
2019-Dec-07 15:30 302 3 -3.3
2019-Dec-07 15:15 300 1 -3.3
2019-Dec-07 15:01 301 1 -3.3
2019-Dec-07 14:45 304 3 -3.9
2019-Dec-07 14:30 261 2 -3.9
2019-Dec-07 14:16 316 3 -4.4
2019-Dec-07 14:01 300 1 -4.4
2019-Dec-07 13:45 293 -5.0
2019-Dec-07 13:31 292 -5.6
2019-Dec-07 13:15 292 0 -5.6
2019-Dec-07 13:00 292 -6.1
2019-Dec-07 12:45 288 -6.1
2019-Dec-07 12:30 294 -6.1
2019-Dec-07 12:15 294 -6.1
2019-Dec-07 12:00 294 -6.7
2019-Dec-07 11:45 294 -6.7
2019-Dec-07 11:30 294 -5.6
2019-Dec-07 11:15 294 -6.1
2019-Dec-07 11:00 294 -5.6
2019-Dec-07 10:46 294 -5.6
2019-Dec-07 10:32 294 -5.6
2019-Dec-07 10:18 293 -5.0
2019-Dec-07 10:02 293 -5.0
2019-Dec-07 09:47 294 -4.4
2019-Dec-07 09:31 293 -4.4
2019-Dec-07 09:15 292 0 -4.4
2019-Dec-07 09:02 316 -3.9
2019-Dec-07 08:46 316 -3.9
2019-Dec-07 08:32 319 -3.9
2019-Dec-07 08:16 273 -3.3
2019-Dec-07 08:01 273 -3.3
2019-Dec-07 07:45 273 -3.3
2019-Dec-07 07:30 273 -3.3
2019-Dec-07 07:16 273 -3.3
2019-Dec-07 07:01 273 -3.9
2019-Dec-07 06:45 273 -3.9
2019-Dec-07 06:30 273 -3.3
2019-Dec-07 06:15 273 -3.3
2019-Dec-07 06:00 272 -3.3
2019-Dec-07 05:45 272 -3.3
2019-Dec-07 05:30 272 -3.3
2019-Dec-07 05:15 253 0 -3.3
2019-Dec-07 05:00 262 2 -3.3
2019-Dec-07 04:45 269 1 -3.3
2019-Dec-07 04:30 285 0 -2.8
2019-Dec-07 04:15 293 1 -2.8
2019-Dec-07 04:00 296 0 -2.8
2019-Dec-07 03:45 290 1 -2.8
2019-Dec-07 03:30 284 1 -2.8
2019-Dec-07 03:15 304 0 -2.2
2019-Dec-07 03:00 294 1 -2.2
2019-Dec-07 02:45 302 1 -2.2
2019-Dec-07 02:30 297 2 -2.2
2019-Dec-07 02:16 306 2 -1.7
2019-Dec-07 02:01 314 0 -1.7
2019-Dec-07 01:46 248 -1.7
2019-Dec-07 01:31 180 -1.7
2019-Dec-07 01:16 163 -1.1
2019-Dec-07 01:01 163 -1.1
2019-Dec-07 00:47 163 -1.1
2019-Dec-07 00:31 163 -1.1
2019-Dec-07 00:17 162 -1.1
2019-Dec-07 00:02 162 -1.1
2019-Dec-06 23:46 162 -1.1
2019-Dec-06 23:32 162 -1.1
2019-Dec-06 23:16 162 -1.1
2019-Dec-06 23:01 162 -1.1
2019-Dec-06 22:46 162 -1.7
2019-Dec-06 22:31 162 -1.7
2019-Dec-06 22:17 162 -1.7
2019-Dec-06 22:02 162 -1.7
2019-Dec-06 21:46 162 -1.7
2019-Dec-06 21:31 162 -1.1
2019-Dec-06 21:17 162 -1.1
2019-Dec-06 21:02 162 -1.1
2019-Dec-06 20:46 162 -1.1
2019-Dec-06 20:16 163 -0.0
2019-Dec-06 20:01 163 0.6
2019-Dec-06 19:46 164 0.6
2019-Dec-06 19:31 165 0.6
2019-Dec-06 19:15 165 1.1
2019-Dec-06 19:01 165 0.6
2019-Dec-06 18:46 161 0 0.6
2019-Dec-06 18:31 219 1 0.6
2019-Dec-06 18:16 234 1 1.1
2019-Dec-06 18:01 215 0 1.1
2019-Dec-06 17:45 218 0 1.1
2019-Dec-06 17:31 219 1 0.6
2019-Dec-06 17:17 232 1 0.6
2019-Dec-06 17:00 262 0 0.6
2019-Dec-06 16:45 248 1 -0.0
2019-Dec-06 16:31 223 0 -0.0
2019-Dec-06 16:15 257 0 -0.6
2019-Dec-06 16:01 290 0 -0.6
2019-Dec-06 15:45 217 1 -0.6
2019-Dec-06 15:31 210 -0.6
2019-Dec-06 15:16 244 0 -0.6
2019-Dec-06 15:00 254 0 -0.6
2019-Dec-06 14:45 258 -1.1
2019-Dec-06 14:30 258 -1.7
2019-Dec-06 14:15 259 -1.7
2019-Dec-06 14:00 261 -1.7
2019-Dec-06 13:45 261 -2.2
2019-Dec-06 13:30 261 -3.9
2019-Dec-06 13:15 261 -4.4
2019-Dec-06 13:00 261 -4.4
2019-Dec-06 12:45 261 -5.0
2019-Dec-06 12:30 261 -6.1
2019-Dec-06 12:15 261 -6.1
2019-Dec-06 12:00 261 -5.6
2019-Dec-06 11:46 261 -5.0
2019-Dec-06 11:32 261 -4.4
2019-Dec-06 11:16 261 -4.4
2019-Dec-06 11:01 261 -4.4
2019-Dec-06 10:46 261 -4.4
2019-Dec-06 10:33 261 -4.4
2019-Dec-06 10:16 261 -3.9
2019-Dec-06 10:01 261 -3.9
2019-Dec-06 09:46 261 -3.9
2019-Dec-06 09:31 261 -3.9
2019-Dec-06 09:16 261 -3.9
2019-Dec-06 09:01 261 -3.9
2019-Dec-06 08:46 261 -3.9
2019-Dec-06 08:31 261 -3.3
2019-Dec-06 08:16 261 -3.9
2019-Dec-06 08:01 261 -3.3
2019-Dec-06 07:47 261 -3.9
2019-Dec-06 07:31 261 -3.9
2019-Dec-06 07:16 261 -3.9
2019-Dec-06 07:01 261 -3.3
2019-Dec-06 06:46 261 -3.3
2019-Dec-06 06:31 261 -3.3
2019-Dec-06 06:16 261 -3.3
2019-Dec-06 06:00 261 -2.8
2019-Dec-06 05:45 261 0 -3.3
2019-Dec-06 05:31 281 2 -2.8
2019-Dec-06 05:15 298 3 -2.8
2019-Dec-06 05:00 304 4 -2.8
2019-Dec-06 04:45 281 2 -2.8
2019-Dec-06 04:30 275 3 -2.8
2019-Dec-06 04:15 275 2 -2.2
2019-Dec-06 04:00 275 1 -2.2
2019-Dec-06 03:45 276 3 -2.2
2019-Dec-06 03:30 306 3 -1.7
2019-Dec-06 03:16 292 3 -1.7
2019-Dec-06 03:01 311 4 -1.1